User: anonymous   Login
Location: Tamazert
(32.6352°N, 5.2072°W)
Time: 15:20:43
(UTC+00:00)
Language:

A-11 Canister half - Orbit

View from above orbital plane
View from above orbital plane
View from above satellite
View from above satellite

Ground track
Ground track

The orbit data is extracted from the following two-line orbital elements,

1 00053U 60009E   22268.58345139  .00000008  00000-0  92007-3 0  9990
2 00053  47.2754 218.9461 0100094  13.3744 346.9665 12.17279380769681
Epoch (UTC): 25 September 2022 14:00:10
Eccentricity: 0.0100094
inclination: 47.2754°
perigee height: 1524 km
apogee height: 1684 km
right ascension of ascending node: 218.9461°
argument of perigee: 13.3744°
revolutions per day: 12.17279380
mean anomaly at epoch: 346.9665°
orbit number at epoch: 76968

The dashed part of the orbit path shows where the satellite is in the earth's shadow,  

DLR